Wind_Speed
32 30 29 29 28 27 26 26 26 23 22 21 20 19 18 17 15 14 14 14 12 14 17 18 19 22 25 24 25 29 27 27 21 15 13 23 22 21 26 28 27 36 35 32 33 34 32
33 33 31 30 29 28 27 27 26 26 23 22 21 20 19 19 18 16 13 13 11 11 14 15 20 23 25 22 18 26 28 29 30 32 27 20 25 21 23 24 28 26 32 37 34 32 29
31 31 33 32 30 29 29 28 27 27 25 23 23 21 20 19 20 19 17 14 15 12 11 12 18 22 23 13 17 22 26 24 25 27 25 18 19 21 21 22 26 32 33 35 39 37 37
40 34 30 35 33 31 30 29 29 28 27 26 24 22 21 20 21 23 21 19 18 19 19 16 19 22 21 16 19 22 26 23 20 18 20 14 17 29 28 22 25 30 34 41 36 37 39
41 38 33 34 35 34 31 32 30 29 29 27 25 24 21 21 21 23 24 22 20 21 22 23 24 22 21 13 14 17 22 21 20 21 26 29 26 26 27 31 27 28 30 30 38 36 34
36 41 39 37 36 33 34 33 32 31 30 29 26 25 22 21 21 21 23 23 22 22 23 25 26 23 16 15 16 14 19 22 20 23 26 27 30 38 34 30 28 26 25 33 28 36 35
37 37 40 40 33 38 35 34 32 32 30 30 28 25 23 22 20 21 21 22 21 24 26 24 23 26 28 25 21 16 14 17 23 26 28 26 32 33 38 38 32 33 28 22 32 28 27
41 39 37 36 36 32 39 34 32 31 31 31 28 26 22 22 21 21 20 18 17 22 28 28 23 29 25 29 28 23 20 21 24 30 27 29 40 31 28 30 36 37 36 43 30 25 25
41 42 38 35 43 45 32 39 34 28 30 31 29 27 24 22 21 20 17 17 16 18 26 37 26 29 28 29 34 32 26 23 25 26 27 35 16 26 31 30 30 34 37 37 39 27 26
41 40 35 30 40 42 36 31 32 27 23 24 22 25 25 23 21 19 16 18 13 15 14 21 15 13 15 29 37 31 31 28 30 30 26 28 29 30 16 30 32 35 34 32 30 26 27
35 32 31 26 29 43 45 24 33 28 26 25 23 23 22 23 21 17 15 15 11 8 4 5 9 8 10 15 22 17 22 33 33 33 27 29 18 26 34 40 23 38 31 27 26 29 34
29 27 28 23 25 30 48 28 29 29 28 26 23 21 19 23 19 16 13 13 7 3 8 7 10 10 10 13 21 28 18 33 38 32 33 32 27 17 26 30 32 30 25 23 20 26 20
25 26 26 25 23 24 32 33 42 32 31 28 25 21 14 18 11 14 13 12 7 7 4 8 12 11 11 14 17 18 24 28 32 20 28 28 33 32 30 27 31 29 25 6 10 8 11
23 27 26 21 21 16 22 27 40 33 33 31 27 23 17 16 13 12 14 15 10 5 13 15 14 14 17 18 19 18 23 22 34 16 7 15 12 33 34 37 29 30 35 12 7 7 8
22 27 25 22 20 18 17 27 33 33 35 31 23 28 18 15 13 12 16 15 9 8 16 15 20 16 15 14 15 12 20 22 20 28 19 8 16 16 26 34 33 31 33 48 10 16 5
23 25 23 21 24 27 20 26 32 32 36 31 30 28 28 17 14 18 17 20 17 15 18 17 16 8 7 9 11 11 13 14 24 22 24 22 22 29 24 24 32 39 33 30 18 5 7
25 25 22 27 29 16 22 12 31 37 40 40 39 28 31 21 16 22 27 25 24 22 20 17 14 10 8 9 8 14 9 14 16 16 22 32 26 23 5 27 32 37 26 28 21 25 2
28 25 23 26 28 26 14 9 24 47 42 33 34 30 31 25 28 33 29 28 24 21 16 17 10 15 14 10 12 20 20 17 11 19 23 33 13 18 31 27 34 31 28 34 22 15 25
27 25 23 28 28 23 27 13 38 46 42 38 35 30 20 27 35 30 27 24 19 19 17 12 15 14 5 16 10 19 24 7 22 16 12 27 14 11 6 19 26 37 35 31 29 37 25
32 28 24 25 26 25 27 8 45 48 45 37 31 25 28 30 26 21 20 20 21 20 25 22 21 16 13 13 18 7 20 12 12 18 15 12 18 17 8 5 19 23 39 37 33 17 8
33 27 22 22 22 25 20 7 36 33 33 31 34 22 30 35 28 22 17 17 15 16 16 10 11 21 16 13 15 19 19 14 15 14 18 16 21 24 21 18 21 32 34 30 34 20 21
33 26 18 17 19 22 21 4 38 38 34 31 33 22 28 22 18 12 16 26 19 21 20 14 12 18 18 19 17 5 15 16 14 15 15 18 16 18 4 15 25 29 27 25 16 12 21
36 30 18 16 18 26 20 3 29 38 31 37 30 34 21 18 21 17 18 17 13 17 18 15 11 21 23 22 13 14 17 14 10 14 13 12 14 16 9 15 18 8 28 25 15 15 18
36 31 20 15 15 22 18 12 24 29 43 36 27 28 23 20 20 17 12 12 14 18 23 18 17 25 19 17 15 12 14 12 18 11 8 7 10 8 4 7 1 2 10 14 12 14 17
33 29 21 16 14 19 17 9 23 24 33 25 24 26 19 22 23 21 14 15 19 19 23 22 24 28 23 15 14 13 10 12 19 18 16 11 6 2 2 4 3 2 2 9 17 14 11
30 27 22 16 15 15 20 10 29 29 32 25 21 17 28 23 20 20 21 14 17 20 25 20 19 21 25 15 13 9 7 8 8 7 18 12 13 7 3 1 1 3 6 4 6 12 16
27 26 23 17 14 14 18 14 18 27 24 28 18 15 17 23 19 17 16 12 15 19 17 9 29 24 28 22 20 8 9 9 9 9 13 18 16 19 11 3 4 5 1 6 8 4 11
25 26 23 18 13 13 14 18 14 28 24 25 20 19 15 18 16 15 11 13 13 16 11 6 22 32 26 23 14 9 8 14 10 10 12 17 14 12 12 5 8 6 10 3 5 8 10
24 27 21 18 14 14 14 18 16 27 24 21 22 17 14 15 12 12 12 10 12 16 12 12 17 25 24 25 18 11 8 11 14 10 15 16 19 15 13 12 5 7 5 8 6 3 3
Wind_Direction
283 283 280 277 274 271 270 271 270 269 275 278 277 279 276 267 260 265 283 281 280 279 273 268 262 255 251 252 257 264 268 270 262 261 277 243 236 236 236 234 233 233 235 235 241 239 224
284 279 279 277 277 272 269 267 267 268 266 272 275 275 274 269 260 259 271 278 282 287 280 271 265 260 256 260 262 258 261 259 265 266 264 251 236 236 243 229 221 232 236 237 233 235 234
281 286 279 276 274 273 270 267 263 263 263 265 269 272 273 267 260 254 258 266 270 285 287 287 278 274 276 273 255 258 256 258 254 259 257 231 215 229 235 237 223 225 232 234 233 228 232
284 277 281 279 277 271 269 265 264 259 257 260 263 266 268 268 263 256 253 258 270 274 277 286 291 283 287 290 259 251 260 267 262 237 227 220 214 220 219 223 224 230 233 238 232 229 230
283 278 269 278 279 274 269 266 260 257 255 252 257 262 263 265 264 261 259 259 266 273 281 288 294 291 299 279 269 260 250 255 246 238 230 230 227 228 228 227 234 233 243 245 248 230 229
283 276 267 257 269 276 272 266 263 257 252 250 250 256 260 262 264 262 262 263 266 269 275 282 289 289 286 282 276 265 248 243 234 230 233 231 229 229 227 219 232 234 250 247 250 241 231
296 286 271 265 263 269 273 265 261 257 251 249 247 248 255 259 261 266 264 264 265 270 272 278 268 277 282 277 275 259 242 237 233 224 228 233 232 226 229 229 229 231 234 250 250 249 245
303 291 279 261 250 262 262 262 257 254 250 247 246 247 248 253 259 264 269 274 268 271 276 274 272 276 268 270 266 260 250 234 227 231 226 229 237 237 239 240 236 235 240 238 249 238 246
307 296 284 263 243 245 253 265 246 242 244 244 241 240 242 246 253 264 272 272 266 272 279 285 282 271 268 257 259 259 248 245 240 235 232 237 243 238 236 234 234 238 240 248 251 249 247
308 298 299 279 250 241 246 240 236 230 234 234 228 234 236 242 243 253 265 270 262 270 292 284 296 280 260 236 252 256 251 246 231 234 232 247 245 233 221 239 231 241 233 248 263 258 262
315 315 308 294 275 238 233 248 224 215 219 230 224 234 232 236 237 248 256 263 252 278 315 267 248 265 267 227 242 270 239 235 230 225 217 229 239 235 230 232 232 243 239 247 256 257 259
313 307 302 280 283 268 238 243 241 211 209 222 227 231 236 235 236 237 245 250 206 180 249 240 259 267 265 260 240 245 222 231 236 230 224 232 238 234 242 244 234 239 244 249 255 253 259
310 303 301 284 291 292 257 248 243 211 203 211 223 227 235 238 228 228 227 217 180 205 245 249 265 267 281 267 269 256 245 240 223 211 225 233 235 237 238 239 235 235 236 238 229 223 242
313 311 302 286 304 302 265 224 241 217 200 204 212 210 217 228 230 221 215 200 203 240 238 266 276 274 268 280 263 254 254 218 219 220 223 232 256 237 232 229 222 220 221 211 210 211 237
318 311 308 297 297 296 257 234 245 218 195 200 195 212 225 209 238 224 221 209 227 238 250 266 269 267 268 270 246 247 236 210 218 220 219 224 243 234 237 234 216 224 207 216 280 268 196
307 308 310 306 332 278 296 242 239 208 190 196 202 205 217 215 225 212 222 238 245 237 257 281 257 251 252 260 216 213 211 232 238 242 231 238 265 259 244 224 227 230 220 202 212 253 189
310 303 311 331 342 324 296 210 214 190 188 202 194 197 212 217 211 211 213 248 263 267 272 260 258 252 245 259 233 220 236 233 244 261 237 233 243 256 198 201 200 212 214 201 214 239 267
317 304 295 322 343 347 308 229 180 181 192 204 190 193 196 199 198 215 230 248 272 277 273 272 260 221 231 255 257 227 237 221 275 232 226 226 243 247 255 235 235 224 206 190 200 207 234
327 311 309 311 342 335 251 257 183 185 201 202 179 185 200 211 208 216 248 263 275 269 276 259 238 220 196 236 253 230 234 256 242 229 219 216 237 251 196 218 196 200 202 197 211 203 270
328 309 310 312 339 344 258 177 185 194 205 185 187 175 191 196 225 239 244 254 264 283 282 254 240 222 210 230 253 269 251 274 239 239 257 279 239 246 257 255 198 186 197 216 212 248 120
332 309 304 314 335 343 286 206 197 210 188 184 196 184 199 201 219 239 247 247 267 273 286 273 252 212 207 232 227 245 256 268 243 237 262 287 266 291 283 224 212 204 205 214 216 235 125
333 325 295 305 328 337 286 200 192 209 168 191 199 204 204 218 235 222 224 243 258 274 280 271 249 205 206 230 226 271 240 213 207 218 254 273 281 341 98 143 174 201 191 201 197 141 131
336 332 310 289 320 334 304 222 193 207 177 198 204 209 205 226 231 230 234 261 280 290 285 278 252 218 211 218 222 248 236 233 235 238 244 274 314 2 40 155 173 199 212 213 212 178 161
333 331 313 300 307 328 266 187 193 191 176 202 210 218 211 224 224 227 244 271 272 285 283 281 291 213 195 216 229 232 255 224 222 230 225 255 271 338 2 115 82 143 201 210 217 214 219
328 330 319 305 292 320 271 198 182 188 179 189 198 215 222 230 242 254 235 248 263 272 275 265 281 213 195 211 194 220 242 190 212 233 237 240 231 243 335 293 313 151 186 206 216 220 216
324 330 324 303 295 287 264 180 188 194 186 180 205 222 227 233 249 255 261 240 257 265 285 257 215 202 212 192 198 205 174 188 210 219 225 233 190 209 198 300 133 105 45 196 202 223 225
324 328 325 307 302 289 277 218 175 177 197 191 195 200 233 228 250 258 262 268 276 292 293 264 195 177 198 203 201 180 185 183 188 193 187 190 202 216 223 276 263 209 44 133 167 182 212
323 324 319 308 290 291 251 210 185 177 186 196 201 209 231 227 241 254 258 286 282 288 272 267 194 202 198 209 211 173 211 206 201 187 194 190 180 194 219 241 272 196 226 167 148 131 111
319 323 317 308 288 283 238 205 199 183 183 199 205 213 219 226 240 245 251 279 273 293 234 238 179 205 203 202 205 197 171 198 210 195 200 203 204 195 195 218 208 192 180 190 190 197 298
Height
3076 3075 3074 3072 3071 3070 3070 3070 3070 3070 3069 3069 3069 3069 3068 3067 3067 3067 3067 3066 3065 3066 3067 3067 3068 3067 3066 3068 3069 3069 3073 3076 3078 3079 3081 3083 3086 3089 3088 3092 3097 3094 3098 3101 3104 3107 3110
3067 3067 3066 3065 3064 3064 3063 3063 3063 3064 3063 3063 3063 3063 3063 3063 3063 3062 3062 3062 3062 3062 3063 3063 3063 3062 3061 3065 3067 3064 3066 3070 3072 3073 3077 3078 3081 3085 3084 3085 3088 3089 3092 3092 3095 3098 3102
3060 3059 3058 3057 3057 3056 3056 3056 3056 3057 3057 3057 3057 3058 3058 3057 3059 3058 3058 3058 3058 3058 3058 3059 3058 3057 3059 3063 3060 3059 3059 3064 3068 3070 3071 3074 3077 3079 3079 3080 3082 3082 3083 3083 3083 3091 3093
3051 3051 3050 3049 3048 3048 3048 3048 3049 3049 3050 3051 3051 3052 3052 3053 3053 3054 3053 3054 3054 3054 3054 3054 3054 3051 3055 3056 3054 3054 3054 3059 3062 3065 3068 3070 3071 3070 3072 3075 3076 3077 3079 3074 3082 3086 3089
3041 3041 3041 3040 3039 3039 3040 3040 3041 3042 3043 3043 3045 3046 3046 3047 3047 3048 3049 3049 3049 3049 3048 3048 3049 3047 3049 3049 3048 3050 3051 3055 3057 3059 3061 3064 3066 3066 3069 3070 3073 3073 3071 3074 3076 3081 3087
3032 3030 3028 3029 3031 3030 3031 3032 3033 3034 3035 3036 3037 3039 3041 3041 3042 3042 3043 3044 3043 3043 3043 3042 3042 3045 3045 3045 3045 3045 3045 3049 3052 3054 3055 3057 3057 3058 3061 3065 3064 3071 3072 3073 3071 3076 3082
3020 3018 3017 3019 3021 3022 3020 3021 3023 3025 3027 3028 3030 3031 3034 3036 3036 3036 3038 3040 3042 3039 3036 3038 3038 3038 3037 3038 3040 3042 3041 3043 3046 3048 3049 3051 3049 3047 3056 3061 3064 3067 3067 3066 3067 3072 3074
3008 3005 3004 3005 3008 3007 3010 3011 3013 3016 3018 3020 3022 3025 3027 3029 3030 3030 3032 3034 3034 3033 3028 3028 3033 3028 3033 3031 3032 3037 3039 3039 3041 3041 3046 3046 3034 3047 3053 3056 3059 3061 3061 3056 3061 3066 3070
2996 2992 2990 2989 2992 2996 2998 3000 3002 3005 3009 3012 3014 3017 3020 3021 3024 3026 3026 3029 3027 3026 3022 3016 3024 3022 3025 3027 3024 3029 3033 3034 3035 3037 3039 3035 3038 3044 3047 3050 3053 3053 3053 3056 3059 3063 3063
2985 2980 2977 2976 2977 2983 2987 2986 2989 2995 3001 3004 3007 3009 3012 3015 3019 3019 3022 3022 3023 3022 3020 3014 3013 3013 3015 3017 3017 3021 3024 3030 3028 3029 3034 3030 3035 3039 3042 3041 3047 3046 3051 3055 3057 3064 3058
2976 2971 2968 2966 2964 2968 2974 2973 2979 2984 2992 2997 3000 3003 3006 3008 3010 3014 3018 3018 3019 3019 3023 3013 3009 3012 3012 3014 3011 3014 3018 3020 3019 3022 3026 3021 3024 3031 3033 3030 3045 3039 3050 3052 3055 3056 3057
2967 2964 2961 2958 2957 2956 2959 2964 2969 2975 2983 2990 2994 2998 2999 3001 3006 3009 3011 3013 3017 3022 3016 3008 3006 3008 3010 3008 3009 3010 3013 3015 3015 3015 3015 3018 3024 3026 3027 3033 3039 3041 3045 3048 3050 3053 3049
2960 2957 2954 2951 2951 2949 2950 2955 2961 2965 2974 2982 2988 2993 2996 2996 3002 3003 3007 3009 3016 3013 3008 3005 3003 3005 3004 3004 3005 3005 3006 3007 3009 3007 3009 3014 3014 3019 3023 3026 3031 3037 3043 3045 3046 3045 3029
2955 2952 2948 2946 2944 2944 2943 2947 2951 2958 2968 2975 2980 2987 2990 2993 2995 2999 3001 3005 3007 3001 3002 3000 3001 3002 3000 3001 3000 3000 3000 3000 3004 3003 3008 3010 3010 3011 3012 3016 3021 3025 3035 3036 3035 3022 3024
2951 2947 2944 2941 2938 2933 2934 2939 2940 2947 2961 2969 2971 2979 2982 2989 2991 2994 2997 2997 2994 2995 2998 2998 2999 2996 2997 2996 2998 2996 2995 2997 2999 3001 3006 3005 3002 3004 3004 3009 3017 3019 3020 3024 3027 3021 3022
2946 2943 2940 2937 2933 2929 2929 2931 2936 2942 2953 2963 2966 2972 2977 2984 2985 2988 2990 2988 2989 2991 2993 2995 2993 2995 2994 2993 2993 2994 2992 2992 2994 2996 2999 3000 2998 2997 3000 3005 3008 3012 3018 3027 3024 3020 3012
2942 2939 2935 2932 2927 2927 2923 2925 2932 2938 2946 2952 2959 2966 2971 2978 2980 2982 2980 2981 2984 2987 2989 2991 2990 2991 2992 2991 2991 2991 2989 2989 2990 2991 2993 2995 2996 2989 2992 2991 2992 3000 3004 3012 3017 3012 3007
2938 2934 2932 2927 2923 2920 2918 2920 2918 2930 2937 2943 2948 2957 2965 2971 2976 2974 2975 2977 2980 2982 2984 2985 2985 2987 2987 2987 2987 2988 2985 2985 2986 2987 2988 2989 2990 2985 2984 2983 2990 2994 2997 3003 3006 3009 3009
2934 2930 2928 2923 2919 2916 2912 2914 2917 2925 2930 2929 2942 2955 2962 2966 2967 2969 2972 2974 2976 2977 2978 2980 2981 2983 2985 2984 2985 2982 2981 2983 2981 2982 2983 2984 2982 2981 2974 2976 2977 2983 2991 2998 2995 2998 2997
2932 2926 2924 2921 2916 2911 2907 2908 2916 2921 2929 2932 2944 2950 2956 2959 2962 2967 2969 2970 2971 2972 2972 2974 2976 2979 2981 2981 2981 2981 2979 2980 2981 2979 2978 2981 2978 2972 2970 2968 2969 2974 2985 2991 2991 2997 2985
2929 2923 2921 2918 2914 2912 2908 2908 2912 2912 2926 2936 2939 2942 2946 2953 2958 2962 2964 2965 2967 2968 2969 2968 2969 2972 2977 2977 2978 2980 2977 2979 2981 2980 2977 2977 2968 2964 2962 2965 2967 2972 2978 2981 2984 2992 2985
2924 2919 2916 2916 2912 2907 2905 2904 2907 2912 2914 2929 2935 2940 2946 2952 2956 2959 2961 2962 2963 2964 2965 2966 2967 2971 2974 2972 2975 2973 2977 2977 2978 2980 2978 2972 2966 2963 2960 2962 2970 2974 2978 2983 2988 2987 2990
2920 2915 2912 2910 2908 2905 2903 2905 2908 2912 2922 2923 2930 2938 2944 2948 2951 2955 2956 2958 2960 2960 2959 2960 2963 2967 2968 2969 2973 2974 2972 2976 2978 2977 2976 2974 2971 2970 2971 2971 2975 2979 2979 2983 2985 2987 2990
2917 2912 2909 2907 2906 2904 2900 2899 2903 2906 2908 2921 2929 2935 2940 2944 2947 2950 2953 2954 2955 2956 2955 2956 2957 2961 2966 2969 2970 2971 2971 2971 2976 2976 2976 2977 2978 2977 2976 2977 2981 2979 2979 2981 2983 2986 2989
2914 2909 2906 2904 2902 2901 2898 2898 2901 2904 2913 2923 2927 2932 2936 2940 2944 2946 2948 2949 2950 2951 2950 2948 2951 2955 2962 2965 2967 2969 2969 2971 2973 2975 2976 2976 2978 2979 2978 2977 2978 2977 2978 2979 2981 2984 2987
2910 2906 2902 2899 2897 2898 2897 2898 2903 2909 2912 2916 2924 2928 2933 2938 2940 2942 2944 2946 2947 2946 2943 2940 2944 2950 2956 2961 2964 2964 2966 2968 2970 2971 2972 2975 2977 2981 2980 2978 2977 2977 2977 2977 2979 2982 2985
2907 2903 2899 2897 2896 2896 2896 2898 2901 2909 2913 2918 2923 2926 2930 2933 2936 2939 2940 2942 2943 2942 2938 2936 2940 2945 2953 2955 2960 2961 2963 2966 2967 2968 2969 2973 2976 2979 2979 2978 2976 2976 2977 2978 2981 2985 2981
2903 2899 2896 2893 2893 2893 2894 2897 2900 2907 2913 2917 2920 2924 2927 2930 2933 2935 2937 2938 2938 2937 2936 2936 2939 2943 2948 2952 2957 2957 2959 2961 2962 2964 2966 2968 2972 2975 2979 2980 2978 2975 2977 2980 2981 2981 2982
2899 2895 2892 2890 2889 2889 2892 2894 2899 2905 2910 2913 2916 2921 2924 2928 2931 2931 2933 2934 2934 2933 2932 2933 2936 2939 2942 2948 2952 2955 2956 2958 2959 2960 2962 2966 2967 2969 2973 2972 2972 2974 2976 2978 2980 2982 2983